カタログに戻る

STARLINK-5567

運用中通信VLEO
NORAD 55377·PAYLOAD·🇺🇸 United States

打ち上げ Jan 26, 2023 から Cape Canaveral Space Force Station

Loading…

次のパス (今後24時間)

TLE

最新Source: CelesTrak SupGP

元期: Sep 15, 2026, 02:16 UTC

1 55377C 23013AY  26258.09493056  .00022920  00000+0  83013-3 0  2585
2 55377  43.0032 328.6895 0001944 264.9538 231.3677 15.27566749    19

AllMySatでSTARLINK-5567をリアルタイム追跡

Download on the App Store